CAPE
0 51 28 107 24 12 0 0 0 0 0 0 0 0 0 54 152 130 33 66 282 1466 1317 1168 967 802 719 609 542 161 43 27
0 18 98 126 25 0 0 0 0 0 0 0 0 0 0 75 165 98 61 83 374 1605 1497 1354 1179 1170 1102 960 685 449 183 81
0 0 3 129 75 13 0 0 0 0 0 0 0 0 0 62 144 59 118 112 373 1690 1716 1617 1508 1448 1433 1318 1145 989 465 242
0 0 0 16 12 7 7 0 0 0 0 0 0 0 0 21 200 126 121 196 498 1653 1850 1771 1691 1643 1600 1534 1390 1311 1056 1061
0 0 0 0 0 0 6 8 0 0 0 0 0 0 0 5 123 256 206 237 498 1167 1653 1945 1836 1775 1770 1644 1582 1613 1568 1521
0 0 0 0 2 8 11 29 0 0 0 9 24 3 1 40 42 233 251 313 373 1014 1133 1195 1204 1991 1939 1959 1879 1934 1986 1949
0 0 2 4 10 1 0 4 0 0 0 10 5 6 52 75 99 93 160 296 378 544 888 1134 982 1252 2002 1874 1910 2071 1814 1785
0 0 5 8 0 0 0 3 1 6 12 11 39 58 87 109 82 107 175 185 387 603 906 1121 797 985 1646 1142 1268 1237 1064 1042
0 0 2 0 0 0 0 0 1 0 1 21 41 52 84 126 99 63 109 203 299 770 1057 1186 930 1015 1386 1365 1197 1179 1294 1130
0 0 0 1 2 0 0 0 0 0 5 6 8 39 41 56 92 97 67 152 359 579 1162 1512 1025 1039 1201 1104 1013 857 729 926
0 0 0 8 1 0 0 0 0 0 0 4 3 0 3 11 24 133 95 130 395 746 1384 1593 1493 1180 1220 885 634 471 425 489
0 0 0 0 0 0 0 0 0 0 0 0 0 0 0 0 0 91 143 171 372 796 1298 1469 1655 1558 1099 749 386 479 262 432
0 0 0 0 0 0 0 0 0 0 0 0 0 0 0 0 0 42 167 255 384 798 1217 1734 1502 1279 856 459 457 252 330 723
0 0 0 0 0 0 0 0 0 0 0 0 0 0 0 0 0 6 172 230 390 388 976 1482 1384 939 509 386 327 301 568 705
0 0 0 0 0 0 0 0 0 0 0 0 0 0 0 0 0 34 141 263 241 430 842 1159 1111 593 545 466 375 459 650 708
0 6 0 0 0 0 0 0 0 0 0 0 0 0 0 0 0 1 71 140 197 347 671 819 630 511 358 331 354 496 661 765
0 0 0 0 0 0 0 0 0 0 0 0 0 0 0 0 0 0 0 73 211 365 664 524 464 311 280 213 278 471 659 795
0 0 0 0 0 0 0 0 0 0 0 0 0 0 0 0 0 0 32 126 279 419 577 474 327 308 204 177 334 484 585 872
0 0 0 0 0 0 0 0 0 0 0 0 0 0 0 0 3 13 85 202 273 472 567 446 422 439 543 676 556 591 707 819
0 0 0 0 0 0 0 0 0 0 0 0 0 0 0 6 30 108 139 189 352 472 570 503 420 280 363 250 203 424 573 588
CIN
0 -13 -7 0 -10 0 0 0 0 0 0 0 0 0 0 -57 -116 -144 -218 -287 -288 -286 -255 -223 -209 -192 -162 -149 -143 -201 -224 -217
0 -22 -11 -5 0 0 0 0 0 0 0 0 0 0 0 -111 -126 -131 -162 -216 -287 -278 -233 -206 -195 -159 -133 -119 -134 -146 -177 -184
0 0 -4 -12 -10 -20 0 0 0 0 0 0 0 0 0 -129 -119 -113 -117 -164 -180 -273 -220 -186 -161 -134 -93 -67 -60 -54 -114 -141
0 0 0 -12 -5 -7 -14 0 0 0 0 0 0 0 0 -89 -124 -117 -127 -168 -151 -279 -216 -192 -151 -118 -76 -52 -39 -24 -28 -8
0 0 0 0 0 0 -9 -6 0 0 0 -3 0 0 0 -82 -101 -125 -134 -187 -183 -193 -232 -154 -124 -88 -50 -39 -26 -8 -2 0
0 0 0 -30 -37 -27 -11 -1 0 0 0 -10 -19 -144 -57 -91 -78 -102 -139 -147 -180 -180 -184 -191 -157 -60 -35 -15 -4 0 0 0
0 0 -13 -82 -40 -52 -7 -29 0 0 0 -39 -83 -121 -77 -62 -59 -71 -101 -143 -161 -148 -152 -167 -149 -125 -30 -18 -1 0 0 0
0 0 -25 -26 0 0 0 -52 -17 -26 -34 -65 -84 -55 -43 -29 -25 -52 -77 -110 -127 -165 -170 -145 -137 -143 -39 -68 -31 -17 -17 -8
0 -3 -37 0 0 0 0 0 -42 -5 -22 -47 -62 -61 -37 -37 -30 -33 -35 -82 -139 -216 -193 -165 -126 -130 -57 -28 -33 -20 -8 -8
-29 0 -1 -53 -59 0 0 0 0 0 -76 -70 -69 -44 -34 -37 -33 -29 -33 -55 -124 -222 -244 -169 -122 -134 -76 -64 -65 -73 -92 -53
0 0 -8 -50 -15 0 0 0 0 0 0 -50 -42 0 -44 -73 -79 -52 -61 -78 -127 -237 -241 -188 -147 -121 -92 -116 -148 -151 -166 -132
0 0 0 -6 0 0 0 0 0 0 0 0 0 0 0 0 0 -73 -98 -121 -158 -264 -269 -229 -175 -121 -158 -177 -199 -177 -192 -120
0 0 0 0 0 0 0 0 0 0 0 0 0 0 0 0 0 -107 -101 -162 -223 -362 -302 -206 -216 -219 -199 -200 -204 -213 -175 -63
0 0 0 0 0 0 0 0 0 0 0 0 0 0 0 0 0 -44 -164 -219 -368 -403 -362 -257 -239 -265 -265 -228 -227 -197 -117 -38
0 0 0 0 0 0 0 0 0 0 0 0 0 0 0 0 0 -164 -220 -305 -505 -464 -383 -311 -305 -321 -271 -264 -206 -142 -87 -21
0 0 0 0 0 0 0 0 0 0 0 0 0 0 0 0 0 -73 -412 -558 -556 -488 -408 -354 -370 -321 -278 -240 -191 -111 -53 -7
0 0 0 0 0 0 0 0 0 0 0 0 0 0 0 0 0 0 -1 -636 -578 -527 -406 -404 -358 -296 -248 -212 -161 -78 -19 -2
0 0 0 0 0 0 0 0 0 0 0 0 0 0 0 0 0 0 -643 -640 -598 -496 -393 -357 -299 -248 -222 -190 -104 -40 -4 0
0 0 0 0 0 0 0 0 0 0 0 0 0 0 0 0 -246 -581 -609 -618 -566 -426 -341 -298 -250 -210 -148 -75 -53 -9 0 0
0 0 0 0 0 0 0 0 0 0 0 0 0 0 0 -355 -483 -527 -584 -579 -473 -358 -276 -240 -228 -195 -138 -87 -46 -10 0 0
Wind_Speed
6 9 10 3 10 6 2 2 3 5 5 1 2 1 3 5 18 14 18 18 19 24 22 20 19 17 16 15 15 15 14 13
10 12 9 9 8 3 5 6 3 3 6 4 4 1 1 7 17 14 17 18 17 23 21 21 20 18 17 16 15 15 15 13
12 14 10 8 10 6 8 3 3 2 4 3 5 3 2 5 13 13 15 17 17 21 22 21 20 19 18 16 15 15 14 14
13 15 8 10 11 10 11 6 2 5 4 1 4 4 1 5 12 12 13 15 14 19 21 20 20 19 18 17 16 15 14 13
15 12 11 13 8 12 15 11 6 5 7 3 2 9 3 5 10 13 12 14 14 15 19 17 17 17 16 16 15 14 14 14
13 13 12 1 10 4 7 6 2 3 6 6 13 7 3 6 8 13 14 15 15 14 17 17 16 15 15 15 14 13 13 13
19 14 11 5 9 1 3 11 10 7 11 12 11 7 8 7 10 12 14 15 15 15 14 16 16 15 14 16 14 12 13 14
21 13 15 8 9 7 9 14 17 15 17 6 11 11 13 13 12 13 17 16 15 14 15 14 12 13 13 13 12 11 11 11
23 21 19 18 19 18 16 18 21 21 19 17 17 16 17 16 14 14 14 16 17 15 15 15 12 9 8 8 7 7 10 8
26 24 19 19 23 23 22 20 23 22 21 23 21 18 18 17 17 15 14 15 18 18 15 15 10 10 9 8 7 6 7 9
22 24 23 23 26 29 27 21 23 21 21 19 19 21 21 20 18 17 16 14 18 18 17 14 13 10 9 8 7 7 7 8
27 26 25 25 26 27 25 21 25 21 22 21 19 22 20 19 18 16 14 13 16 18 18 17 14 12 9 8 8 7 7 7
22 25 27 25 27 28 24 21 25 22 18 20 20 21 19 17 17 16 13 12 17 18 19 18 17 14 10 8 7 7 6 7
25 22 20 16 29 23 17 19 19 16 17 19 21 21 20 17 17 16 13 12 15 16 20 19 15 13 10 8 8 7 6 6
26 24 23 25 34 24 23 17 15 16 19 20 21 22 20 16 14 13 12 12 15 17 19 18 13 12 10 9 8 6 5 6
28 20 17 28 33 22 21 20 19 19 20 20 20 22 19 14 12 11 7 11 13 14 16 15 12 9 8 7 7 6 6 7
25 24 24 26 30 27 22 15 21 22 20 20 22 22 15 7 7 4 7 11 14 15 15 13 11 10 8 8 7 6 5 7
24 18 22 23 29 27 22 23 21 25 21 23 20 19 12 4 4 7 9 11 14 16 16 12 9 7 5 5 5 4 3 4
25 18 18 22 28 28 26 28 26 22 19 20 20 18 12 6 6 9 12 14 15 17 16 12 10 7 5 4 4 6 6 5
24 20 23 21 26 27 25 27 22 23 22 23 17 15 7 8 9 10 12 15 17 17 15 11 10 7 5 4 4 1 3 2
Wind_Direction
232 238 250 241 180 130 171 257 244 219 264 259 246 190 311 76 160 165 171 178 186 179 186 185 185 187 188 190 190 194 200 207
249 240 237 267 168 144 241 167 234 299 239 186 353 357 342 136 168 170 180 182 178 179 187 187 187 189 191 194 196 202 207 214
237 250 254 232 267 284 258 219 243 236 256 270 94 358 329 178 185 185 186 187 182 180 189 191 189 190 193 195 200 205 210 220
240 243 228 250 251 252 244 232 177 213 280 302 82 30 84 193 202 208 190 195 194 181 193 193 192 191 193 195 200 205 211 221
261 274 264 257 257 241 239 211 197 350 267 299 84 17 339 229 213 211 205 200 200 189 196 198 195 194 195 199 204 206 214 223
246 257 270 246 235 277 241 233 87 277 261 276 18 354 309 265 238 214 211 204 207 205 192 200 198 197 196 202 206 212 218 226
251 249 245 175 237 148 332 273 275 259 274 299 316 305 292 287 263 234 221 214 208 202 204 201 201 191 194 201 209 213 223 228
250 265 270 236 244 282 278 273 276 271 256 257 264 278 286 284 272 248 237 221 213 213 205 204 202 196 202 204 211 215 226 237
247 256 260 283 272 273 263 270 272 283 307 296 288 280 277 270 271 268 248 220 213 202 203 206 201 188 198 204 206 219 232 235
265 264 260 259 274 279 267 271 276 286 288 290 289 284 279 277 270 263 257 240 210 204 204 200 198 196 200 201 204 214 217 223
249 264 267 270 269 270 276 282 280 285 283 277 277 277 278 275 269 269 263 237 211 198 200 195 197 193 204 204 199 220 221 215
257 256 260 259 265 270 270 277 276 274 281 281 285 283 283 277 268 264 258 239 210 198 199 192 187 189 188 197 202 218 220 222
246 252 252 261 264 261 266 263 267 275 279 278 285 293 287 277 270 269 265 232 207 197 196 192 186 176 188 186 217 215 215 211
230 230 243 238 259 260 269 266 270 270 280 286 287 288 282 276 266 268 260 224 192 196 192 188 177 174 180 183 207 216 210 225
244 241 236 233 256 251 255 254 260 271 279 284 292 292 280 282 273 265 249 212 193 200 188 182 169 167 170 175 212 214 213 234
259 239 222 240 249 254 258 256 274 276 276 287 293 288 285 287 294 272 219 188 195 188 181 172 159 156 171 174 205 217 221 239
244 243 242 235 253 260 257 268 269 276 285 285 287 291 287 307 292 210 181 179 184 178 163 165 161 169 175 196 203 216 230 239
255 246 242 252 265 275 269 261 271 275 277 281 284 289 287 283 229 173 165 165 164 162 162 165 164 175 189 199 200 237 252 251
250 252 248 259 266 266 265 258 254 266 264 268 271 278 274 214 188 164 159 156 157 157 160 162 151 151 160 151 213 214 199 216
251 252 252 245 268 265 269 267 262 264 268 266 267 261 241 184 169 164 152 155 154 154 154 153 166 165 175 226 250 74 248 205